Location: Bonningues
(50.7927°N, 2.0150°E)
Time: 17:30:24
(UTC+00:00)

Cosmos 1869 Rocket - Pass Details

Date: 08 August 2020
Orbit: 604 x 634 km, 82.5° (Epoch: 24 September)

Event Time Altitude Azimuth Distance (km) Brightness Sun altitude
Exits shadow 22:12:58 47° 167° (SSE) 836 3.7 -19.6°
Maximum altitude 22:14:09 72° 98° (E) 662 3.5 -19.7°
Drops below altitude 10° 22:18:37 10° 14° (NNE) 2,021 6.9 -20.0°
Sets 22:20:53 0° 12° (NNE) 2,937 7.9 -20.1°
